Time,TemperatureF,DewpointF,PressureIn,WindDirection,WindDirectionDegrees,WindSpeedMPH,WindSpeedGustMPH,Humidity,HourlyPrecipIn,Conditions,Clouds,dailyrainin,SoftwareType,DateUTC
2013-10-18 00:12:00,48.9,48.4,29.75,West,270,4.2,-999.0,98,-99.99,,,0.00,Acu-Link.com,2013-10-18 04:12:00,
2013-10-18 00:27:00,48.7,48.2,29.75,NW,315,2.7,-999.0,98,-99.99,,,0.00,Acu-Link.com,2013-10-18 04:27:00,
2013-10-18 00:42:00,48.7,48.2,29.76,West,270,4.2,-999.0,98,-99.99,,,0.00,Acu-Link.com,2013-10-18 04:42:00,
2013-10-18 00:58:00,48.9,48.4,29.75,WNW,292,8.9,-999.0,98,-99.99,,,0.00,Acu-Link.com,2013-10-18 04:58:00,
2013-10-18 01:13:00,49.1,48.6,29.76,WNW,292,5.8,-999.0,98,-99.99,,,0.00,Acu-Link.com,2013-10-18 05:13:00,
2013-10-18 01:28:00,49.3,48.8,29.76,NNW,337,2.2,-999.0,98,-99.99,,,0.00,Acu-Link.com,2013-10-18 05:28:00,
2013-10-18 01:44:00,49.1,48.6,29.76,NNE,22,6.8,-999.0,98,-99.99,,,0.00,Acu-Link.com,2013-10-18 05:44:00,
2013-10-18 01:59:00,49.1,48.6,29.76,West,270,5.8,-999.0,98,-99.99,,,0.00,Acu-Link.com,2013-10-18 05:59:00,
2013-10-18 02:15:00,49.1,48.6,29.76,East,90,2.7,-999.0,98,-99.99,,,0.00,Acu-Link.com,2013-10-18 06:15:00,
2013-10-18 02:30:00,49.1,48.6,29.76,West,270,2.2,-999.0,98,-99.99,,,0.00,Acu-Link.com,2013-10-18 06:30:00,
2013-10-18 02:45:00,49.3,48.8,29.77,SE,135,4.7,-999.0,98,-99.99,,,0.00,Acu-Link.com,2013-10-18 06:45:00,
2013-10-18 03:03:00,49.3,48.8,29.77,West,270,5.8,-999.0,98,-99.99,,,0.00,Acu-Link.com,2013-10-18 07:03:00,
2013-10-18 03:18:00,49.1,48.6,29.78,NW,315,4.2,-999.0,98,-99.99,,,0.00,Acu-Link.com,2013-10-18 07:18:00,
2013-10-18 03:37:00,48.9,48.4,29.78,WNW,292,4.7,-999.0,98,-99.99,,,0.00,Acu-Link.com,2013-10-18 07:37:00,
2013-10-18 03:52:00,48.6,48.1,29.78,West,270,6.8,-999.0,98,-99.99,,,0.00,Acu-Link.com,2013-10-18 07:52:00,
2013-10-18 04:08:00,48.4,47.9,29.78,West,270,6.8,-999.0,98,-99.99,,,0.00,Acu-Link.com,2013-10-18 08:08:00,
2013-10-18 04:23:00,48.6,48.1,29.78,South,180,3.2,-999.0,98,-99.99,,,0.00,Acu-Link.com,2013-10-18 08:23:00,
2013-10-18 04:38:00,48.6,48.1,29.78,SW,225,8.3,-999.0,98,-99.99,,,0.00,Acu-Link.com,2013-10-18 08:38:00,
2013-10-18 04:53:00,48.6,48.1,29.79,SW,225,1.1,-999.0,98,-99.99,,,0.00,Acu-Link.com,2013-10-18 08:53:00,
2013-10-18 05:08:00,48.4,47.9,29.79,East,90,5.3,-999.0,98,-99.99,,,0.00,Acu-Link.com,2013-10-18 09:08:00,
2013-10-18 05:23:00,48.0,47.5,29.81,NW,315,2.7,-999.0,98,-99.99,,,0.00,Acu-Link.com,2013-10-18 09:23:00,
2013-10-18 05:38:00,47.7,47.2,29.80,WSW,247,11.4,-999.0,98,-99.99,,,0.00,Acu-Link.com,2013-10-18 09:38:00,
2013-10-18 05:54:00,47.7,47.2,29.81,WSW,247,3.7,-999.0,98,-99.99,,,0.00,Acu-Link.com,2013-10-18 09:54:00,
2013-10-18 06:09:00,47.7,47.2,29.82,NW,315,0.0,-999.0,98,-99.99,,,0.00,Acu-Link.com,2013-10-18 10:09:00,
2013-10-18 06:25:00,47.5,47.0,29.83,ESE,112,2.7,-999.0,98,-99.99,,,0.00,Acu-Link.com,2013-10-18 10:25:00,
2013-10-18 06:40:00,47.5,47.0,29.83,West,270,3.2,-999.0,98,-99.99,,,0.00,Acu-Link.com,2013-10-18 10:40:00,
2013-10-18 06:56:00,47.7,47.2,29.83,WSW,247,7.8,-999.0,98,-99.99,,,0.00,Acu-Link.com,2013-10-18 10:56:00,
2013-10-18 07:12:00,47.7,47.2,29.83,SSE,157,1.1,-999.0,98,-99.99,,,0.00,Acu-Link.com,2013-10-18 11:12:00,
2013-10-18 07:27:00,47.3,46.8,29.84,SSW,202,4.7,-999.0,98,-99.99,,,0.00,Acu-Link.com,2013-10-18 11:27:00,
2013-10-18 07:45:00,47.3,46.8,29.84,West,270,3.7,-999.0,98,-99.99,,,0.00,Acu-Link.com,2013-10-18 11:45:00,
2013-10-18 08:01:00,47.3,46.8,29.85,WSW,247,6.8,-999.0,98,-99.99,,,0.00,Acu-Link.com,2013-10-18 12:01:00,
2013-10-18 08:16:00,47.5,47.0,29.86,NNW,337,5.3,-999.0,98,-99.99,,,0.00,Acu-Link.com,2013-10-18 12:16:00,
2013-10-18 08:32:00,47.5,47.0,29.86,North,0,6.3,-999.0,98,-99.99,,,0.00,Acu-Link.com,2013-10-18 12:32:00,
2013-10-18 08:47:00,48.0,47.5,29.87,SW,225,3.2,-999.0,98,-99.99,,,0.00,Acu-Link.com,2013-10-18 12:47:00,
2013-10-18 09:03:00,48.2,47.7,29.89,NNW,337,6.3,-999.0,98,-99.99,,,0.00,Acu-Link.com,2013-10-18 13:03:00,
2013-10-18 09:20:00,48.7,48.2,29.89,NW,315,6.3,-999.0,98,-99.99,,,0.00,Acu-Link.com,2013-10-18 13:20:00,
2013-10-18 09:35:00,48.9,48.4,29.89,West,270,6.8,-999.0,98,-99.99,,,0.00,Acu-Link.com,2013-10-18 13:35:00,
2013-10-18 09:51:00,49.5,49.0,29.90,ESE,112,5.8,-999.0,98,-99.99,,,0.00,Acu-Link.com,2013-10-18 13:51:00,
2013-10-18 10:07:00,49.8,49.3,29.90,South,180,5.8,-999.0,98,-99.99,,,0.00,Acu-Link.com,2013-10-18 14:07:00,
2013-10-18 10:22:00,51.1,50.6,29.90,South,180,5.8,-999.0,98,-99.99,,,0.00,Acu-Link.com,2013-10-18 14:22:00,
2013-10-18 10:38:00,52.2,45.6,29.91,WSW,247,7.3,-999.0,78,-99.99,,,0.00,Acu-Link.com,2013-10-18 14:38:00,
2013-10-18 10:54:00,52.9,40.2,29.91,WSW,247,6.8,-999.0,62,-99.99,,,0.00,Acu-Link.com,2013-10-18 14:54:00,
2013-10-18 11:09:00,53.6,35.9,29.90,West,270,12.5,-999.0,51,-99.99,,,0.00,Acu-Link.com,2013-10-18 15:09:00,
2013-10-18 11:26:00,53.1,32.3,29.90,South,180,3.7,-999.0,45,-99.99,,,0.00,Acu-Link.com,2013-10-18 15:26:00,
2013-10-18 11:41:00,55.0,26.4,29.91,WSW,247,10.4,-999.0,33,-99.99,,,0.00,Acu-Link.com,2013-10-18 15:41:00,
2013-10-18 11:59:00,55.9,24.9,29.90,West,270,9.4,-999.0,30,-99.99,,,0.00,Acu-Link.com,2013-10-18 15:59:00,
2013-10-18 12:14:00,55.8,17.5,29.90,SW,225,11.9,-999.0,22,-99.99,,,0.00,Acu-Link.com,2013-10-18 16:14:00,
2013-10-18 12:29:00,54.1,20.9,29.90,SW,225,4.7,-999.0,27,-99.99,,,0.00,Acu-Link.com,2013-10-18 16:29:00,
2013-10-18 12:44:00,55.6,15.2,29.90,WSW,247,7.3,-999.0,20,-99.99,,,0.00,Acu-Link.com,2013-10-18 16:44:00,
2013-10-18 13:00:00,55.9,14.3,29.90,WSW,247,7.3,-999.0,19,-99.99,,,0.00,Acu-Link.com,2013-10-18 17:00:00,
2013-10-18 13:30:00,55.4,13.8,29.89,South,180,5.8,-999.0,19,-99.99,,,0.00,Acu-Link.com,2013-10-18 17:30:00,
2013-10-18 13:46:00,56.1,9.1,29.88,West,270,6.8,-999.0,15,-99.99,,,0.00,Acu-Link.com,2013-10-18 17:46:00,
2013-10-18 14:02:00,55.8,7.3,29.89,WSW,247,4.2,-999.0,14,-99.99,,,0.00,Acu-Link.com,2013-10-18 18:02:00,
2013-10-18 14:17:00,59.0,-21.7,29.88,WSW,247,6.3,-999.0,3,-99.99,,,0.00,Acu-Link.com,2013-10-18 18:17:00,
2013-10-18 14:32:00,59.5,-41.2,29.88,West,270,8.3,-999.0,0,-99.99,,,0.00,Acu-Link.com,2013-10-18 18:32:00,
2013-10-18 14:48:00,58.6,-41.7,29.87,West,270,8.9,-999.0,0,-99.99,,,0.00,Acu-Link.com,2013-10-18 18:48:00,
2013-10-18 15:03:00,58.8,-41.6,29.87,West,270,6.3,-999.0,0,-99.99,,,0.00,Acu-Link.com,2013-10-18 19:03:00,
2013-10-18 15:18:00,59.7,-41.0,29.86,West,270,8.3,-999.0,0,-99.99,,,0.00,Acu-Link.com,2013-10-18 19:18:00,
2013-10-18 15:33:00,59.5,-41.2,29.86,NW,315,4.7,-999.0,0,-99.99,,,0.00,Acu-Link.com,2013-10-18 19:33:00,
2013-10-18 15:49:00,59.9,-40.9,29.86,WSW,247,4.2,-999.0,0,-99.99,,,0.00,Acu-Link.com,2013-10-18 19:49:00,
2013-10-18 16:05:00,59.9,-40.9,29.86,West,270,3.7,-999.0,0,-99.99,,,0.00,Acu-Link.com,2013-10-18 20:05:00,
2013-10-18 16:20:00,59.9,-40.9,29.86,West,270,10.9,-999.0,0,-99.99,,,0.00,Acu-Link.com,2013-10-18 20:20:00,
2013-10-18 16:35:00,59.4,-41.2,29.86,WSW,247,7.3,-999.0,0,-99.99,,,0.00,Acu-Link.com,2013-10-18 20:35:00,
2013-10-18 16:51:00,59.0,-41.5,29.85,North,0,5.3,-999.0,0,-99.99,,,0.00,Acu-Link.com,2013-10-18 20:51:00,
2013-10-18 17:06:00,58.6,-41.7,29.86,NNW,337,4.7,-999.0,0,-99.99,,,0.00,Acu-Link.com,2013-10-18 21:06:00,
2013-10-18 17:22:00,58.3,-41.9,29.86,SE,135,2.7,-999.0,0,-99.99,,,0.00,Acu-Link.com,2013-10-18 21:22:00,
2013-10-18 17:39:00,58.5,-41.8,29.86,SW,225,0.0,-999.0,0,-99.99,,,0.00,Acu-Link.com,2013-10-18 21:39:00,
2013-10-18 17:55:00,57.0,-42.7,29.87,North,0,0.0,-999.0,0,-99.99,,,0.00,Acu-Link.com,2013-10-18 21:55:00,
2013-10-18 18:10:00,56.1,-43.2,29.87,SE,135,0.0,-999.0,0,-99.99,,,0.00,Acu-Link.com,2013-10-18 22:10:00,
2013-10-18 18:25:00,54.5,-0.9,29.87,NW,315,0.0,-999.0,10,-99.99,,,0.00,Acu-Link.com,2013-10-18 22:25:00,
2013-10-18 18:41:00,53.4,12.2,29.88,NE,45,0.0,-999.0,19,-99.99,,,0.00,Acu-Link.com,2013-10-18 22:41:00,
2013-10-18 18:57:00,52.0,27.8,29.88,SSE,157,0.0,-999.0,39,-99.99,,,0.00,Acu-Link.com,2013-10-18 22:57:00,
2013-10-18 19:13:00,50.0,44.1,29.88,SSE,157,0.0,-999.0,80,-99.99,,,0.00,Acu-Link.com,2013-10-18 23:13:00,
2013-10-18 19:28:00,48.7,48.2,29.89,SSE,157,0.0,-999.0,98,-99.99,,,0.00,Acu-Link.com,2013-10-18 23:28:00,
2013-10-18 19:43:00,47.5,47.0,29.89,SW,225,0.0,-999.0,98,-99.99,,,0.00,Acu-Link.com,2013-10-18 23:43:00,
2013-10-18 19:59:00,46.9,46.4,29.89,South,180,0.0,-999.0,98,-99.99,,,0.00,Acu-Link.com,2013-10-18 23:59:00,
2013-10-18 20:14:00,45.9,45.4,29.89,ESE,112,2.7,-999.0,98,-99.99,,,0.00,Acu-Link.com,2013-10-19 00:14:00,
2013-10-18 20:30:00,45.7,45.2,29.89,SSE,157,0.0,-999.0,98,-99.99,,,0.00,Acu-Link.com,2013-10-19 00:30:00,
2013-10-18 20:45:00,44.6,44.1,29.89,SSE,157,1.1,-999.0,98,-99.99,,,0.00,Acu-Link.com,2013-10-19 00:45:00,
2013-10-18 21:01:00,43.9,43.4,29.89,ESE,112,0.0,-999.0,98,-99.99,,,0.00,Acu-Link.com,2013-10-19 01:01:00,
2013-10-18 21:17:00,43.0,42.5,29.89,SSE,157,2.2,-999.0,98,-99.99,,,0.00,Acu-Link.com,2013-10-19 01:17:00,
2013-10-18 21:32:00,43.2,42.7,29.90,SE,135,1.7,-999.0,98,-99.99,,,0.00,Acu-Link.com,2013-10-19 01:32:00,
2013-10-18 21:47:00,42.6,42.1,29.90,ESE,112,1.7,-999.0,98,-99.99,,,0.00,Acu-Link.com,2013-10-19 01:47:00,
2013-10-18 22:03:00,42.4,41.9,29.90,South,180,0.0,-999.0,98,-99.99,,,0.00,Acu-Link.com,2013-10-19 02:03:00,
2013-10-18 22:18:00,41.2,40.7,29.90,SE,135,0.0,-999.0,98,-99.99,,,0.00,Acu-Link.com,2013-10-19 02:18:00,
2013-10-18 22:34:00,40.8,40.3,29.91,SSW,202,0.0,-999.0,98,-99.99,,,0.00,Acu-Link.com,2013-10-19 02:34:00,
2013-10-18 22:50:00,40.1,39.6,29.90,NW,315,0.0,-999.0,98,-99.99,,,0.00,Acu-Link.com,2013-10-19 02:50:00,
2013-10-18 23:05:00,39.7,39.2,29.91,SSE,157,0.0,-999.0,98,-99.99,,,0.00,Acu-Link.com,2013-10-19 03:05:00,
2013-10-18 23:22:00,40.6,40.1,29.91,ESE,112,0.0,-999.0,98,-99.99,,,0.00,Acu-Link.com,2013-10-19 03:22:00,
2013-10-18 23:38:00,39.9,39.4,29.91,SE,135,0.0,-999.0,98,-99.99,,,0.00,Acu-Link.com,2013-10-19 03:38:00,
2013-10-18 23:53:00,39.6,39.1,29.90,SSW,202,0.0,-999.0,98,-99.99,,,0.00,Acu-Link.com,2013-10-19 03:53:00,